GW0147 Weather Reports


Display with metric or nautical units.
time (UTC)temp
F
wind
direction
speed
MPH
gust
MPH
rain 1hr
in
rain 24hr
in
rain mn
in
humidity
%
barometer
mb
20260509211503 58 267 2.0 6.0 0.00 0.00 0.00 75 1004.4
20260509210002 58 257 3.0 9.0 0.00 0.00 0.00 78 1004.5
20260509204503 58 283 3.0 8.0 0.00 0.00 0.00 76 1004.6
20260509203000 59 269 2.0 7.0 0.00 0.00 0.00 75 1004.5
20260509201601 60 246 3.0 9.0 0.00 0.00 0.00 73 1004.8
20260509200058 62 292 3.0 8.0 0.00 0.00 0.00 71 1005.0
20260509194558 61 275 3.0 7.0 0.00 0.00 0.00 73 1005.1
20260509193056 61 282 4.0 10.0 0.00 0.00 0.00 71 1005.4
20260509191558 61 279 4.0 13.0 0.00 0.00 0.00 71 1005.8
20260509190056 60 259 5.0 9.0 0.00 0.00 0.00 74 1006.0
20260509184549 58 258 4.0 11.0 0.00 0.00 0.00 77 1006.4
20260509183050 60 254 4.0 10.0 0.00 0.00 0.00 74 1006.0
20260509181552 58 257 4.0 10.0 0.00 0.00 0.00 76 1006.3
20260509180045 59 297 4.0 9.0 0.00 0.00 0.00 74 1006.4
20260509174553 60 250 2.0 9.0 0.00 0.00 0.00 75 1006.6
20260509173048 60 249 6.0 14.0 0.00 0.00 0.00 73 1007.0
20260509171544 60 277 3.0 11.0 0.00 0.00 0.00 73 1007.0
20260509170041 59 211 2.0 12.0 0.00 0.00 0.00 76 1007.2
20260509164537 59 288 4.0 8.0 0.00 0.00 0.00 75 1007.2
20260509163036 57 265 3.0 7.0 0.00 0.00 0.00 77 1007.5
20260509161535 59 282 3.0 8.0 0.00 0.00 0.00 75 1007.4
20260509160035 57 247 3.0 8.0 0.00 0.00 0.00 78 1007.4
20260509154535 57 306 2.0 7.0 0.00 0.00 0.00 77 1007.7
20260509153034 57 283 2.0 6.0 0.00 0.00 0.00 78 1007.7
20260509151534 58 292 2.0 6.0 0.00 0.00 0.00 74 1007.8
20260509150029 58 198 2.0 6.0 0.00 0.00 0.00 75 1007.7
20260509144527 58 119 2.0 8.0 0.00 0.00 0.00 77 1007.7
20260509143025 56 155 2.0 7.0 0.00 0.00 0.00 78 1007.8
20260509141524 56 161 3.0 7.0 0.00 0.00 0.00 78 1007.8
20260509140029 56 161 4.0 9.0 0.00 0.00 0.00 79 1007.9
20260509134521 56 134 3.0 7.0 0.00 0.00 0.00 80 1008.0
20260509133019 55 157 3.0 8.0 0.00 0.00 0.00 81 1008.1
20260509131529 54 144 3.0 10.0 0.00 0.00 0.00 82 1008.3
20260509130023 54 221 3.0 10.0 0.00 0.00 0.00 82 1008.4
20260509124521 54 174 2.0 9.0 0.00 0.00 0.00 83 1008.4
20260509123011 53 151 2.0 12.0 0.00 0.00 0.00 84 1008.5
20260509121512 53 172 3.0 7.0 0.00 0.00 0.00 85 1008.7
20260509120007 52 138 2.0 7.0 0.00 0.00 0.00 86 1008.6
20260509114503 51 144 2.0 4.0 0.00 0.02 0.00 87 1008.6
20260509113102 50 148 2.0 5.0 0.00 0.02 0.00 88 1008.7
20260509113001 50 146 2.0 5.0 0.00 0.02 0.00 88 1008.7
20260509111606 49 153 2.0 5.0 0.00 0.02 0.00 88 1008.8
20260509110055 48 163 1.0 4.0 0.00 0.02 0.00 89 1008.7
20260509104553 48 164 1.0 4.0 0.00 0.04 0.00 89 1008.7
20260509103050 46 150 1.0 5.0 0.00 0.04 0.00 90 1008.7
20260509101551 45 150 1.0 3.0 0.00 0.04 0.00 89 1008.8
20260509100051 45 152 1.0 3.0 0.00 0.04 0.00 89 1008.8
20260509094551 46 151 1.0 3.0 0.00 0.05 0.00 88 1008.6
20260509093048 45 151 1.0 4.0 0.00 0.05 0.00 88 1008.6
20260509091547 45 151 1.0 4.0 0.00 0.05 0.00 88 1008.7
20260509084545 46 150 1.0 3.0 0.00 0.05 0.00 87 1008.8
20260509083050 46 148 2.0 4.0 0.00 0.05 0.00 86 1008.8
20260509081543 46 147 1.0 3.0 0.00 0.05 0.00 86 1008.9
20260509080041 45 148 2.0 5.0 0.00 0.05 0.00 86 1009.0
20260509074537 44 150 2.0 3.0 0.00 0.05 0.00 86 1009.2
20260509073038 44 150 1.0 3.0 0.00 0.05 0.00 85 1009.4
20260509071534 43 152 1.0 3.0 0.00 0.05 0.00 84 1009.4
20260509070036 43 152 1.0 3.0 0.00 0.05 0.00 83 1009.5
20260509064532 43 152 1.0 3.0 0.00 0.05 0.00 82 1009.6
20260509063033 44 153 1.0 4.0 0.00 0.05 0.00 79 1009.7
20260509061533 44 143 2.0 5.0 0.00 0.05 0.00 78 1010.0
20260509060025 44 152 2.0 6.0 0.00 0.05 0.00 76 1010.3
20260509054525 44 151 3.0 5.0 0.00 0.05 0.00 76 1010.4
20260509053021 43 156 2.0 5.0 0.00 0.05 0.00 76 1010.5
20260509051521 43 169 1.0 3.0 0.00 0.05 0.00 78 1010.7
20260509050016 42 169 1.0 3.0 0.00 0.05 0.00 77 1010.8
20260509044513 42 169 1.0 3.0 0.00 0.05 0.00 78 1011.0
20260509043011 42 170 1.0 3.0 0.00 0.05 0.00 79 1011.3
20260509041511 42 170 1.0 4.0 0.00 0.05 0.00 78 1011.3
20260509040007 42 171 2.0 4.0 0.00 0.05 0.00 79 1011.4
20260509034507 42 173 2.0 4.0 0.00 0.05 0.05 80 1011.5
20260509033007 42 176 2.0 3.0 0.00 0.05 0.05 79 1011.7
20260509031506 42 186 1.0 3.0 0.00 0.05 0.05 79 1011.8
20260509030006 43 199 1.0 3.0 0.00 0.05 0.05 78 1012.0
20260509024505 43 216 1.0 3.0 0.00 0.05 0.05 77 1012.0
20260509023005 43 216 1.0 2.0 0.00 0.05 0.05 75 1012.0
20260509021505 44 219 0.0 2.0 0.00 0.05 0.05 73 1011.9
20260509020004 45 226 1.0 2.0 0.00 0.05 0.05 72 1011.8
20260509014504 45 227 0.0 2.0 0.00 0.05 0.05 69 1011.7
20260509013004 47 227 0.0 2.0 0.00 0.05 0.05 66 1011.6
20260509011503 48 230 1.0 2.0 0.00 0.05 0.05 60 1011.6
20260509010002 49 232 1.0 2.0 0.00 0.05 0.05 57 1011.5
20260509004502 51 233 0.0 1.0 0.00 0.05 0.05 53 1011.4
20260509003002 52 234 0.0 2.0 0.00 0.05 0.05 47 1011.3
20260509001501 52 236 0.0 4.0 0.00 0.05 0.05 47 1011.2
20260509000101 53 266 1.0 5.0 0.00 0.05 0.05 46 1011.2
20260509000003 53 283 0.0 3.0 0.00 0.05 0.05 47 1011.2
20260508234600 54 243 0.0 4.0 0.00 0.05 0.05 44 1011.1
20260508233113 54 231 2.0 6.0 0.00 0.05 0.05 42 1011.2
20260508231601 55 240 2.0 6.0 0.00 0.05 0.05 42 1011.1
20260508230106 55 227 3.0 8.0 0.00 0.05 0.05 40 1011.1
20260508224557 55 279 5.0 8.0 0.00 0.05 0.05 39 1011.1
20260508223057 55 206 3.0 10.0 0.00 0.05 0.05 38 1011.3
20260508221556 55 261 4.0 10.0 0.00 0.05 0.05 39 1011.3
20260508220057 56 253 4.0 9.0 0.00 0.05 0.05 38 1011.3
20260508214554 55 290 2.0 5.0 0.00 0.05 0.05 43 1011.4
20260508213052 55 315 2.0 6.0 0.00 0.05 0.05 45 1011.4